Location: Unspecified
(0.0000°N, 0.0000°E)
Time: 02:59:49
(UTC+00:00)

Hubble Space Telescope - Pass Details

Date: 10 July 2024
Orbit: 509 x 513 km, 28.5° (Epoch: 24 July)

Event Time Altitude Azimuth Distance (km) Brightness Sun altitude
Rises 18:58:50 0° 277° (W) 2,599 5.9 -12.3°
Reaches altitude 10° 19:02:19 10° 309° (NW) 1,713 4.6 -13.1°
Maximum altitude 19:03:53 12° 333° (NNW) 1,590 3.9 -13.5°
Drops below altitude 10° 19:05:28 10° 356° (N) 1,713 3.7 -13.9°
Sets 19:08:57 0° 28° (NNE) 2,597 4.2 -14.7°
